Time,TemperatureF,DewpointF,PressureIn,WindDirection,WindDirectionDegrees,WindSpeedMPH,WindSpeedGustMPH,Humidity,HourlyPrecipIn,Conditions,Clouds,dailyrainin,SoftwareType,DateUTC
2013-03-23 00:02:00,46.2,35.1,29.15,South,174,0.0,0.0,65,0.00,,---,0.00,VWS V13.00,2013-03-23 05:02:00,
2013-03-23 00:07:00,45.7,35.0,29.15,SSE,159,0.0,0.0,66,0.00,,---,0.00,VWS V13.00,2013-03-23 05:07:00,
2013-03-23 00:15:00,45.3,35.4,29.15,NNE,33,0.0,0.0,68,0.00,,---,0.00,VWS V13.00,2013-03-23 05:15:00,
2013-03-23 00:22:00,45.1,35.6,29.15,South,188,0.0,0.0,69,0.00,,---,0.00,VWS V13.00,2013-03-23 05:22:00,
2013-03-23 00:28:00,44.8,36.0,29.15,East,97,0.0,0.0,71,0.00,,---,0.00,VWS V13.00,2013-03-23 05:28:00,
2013-03-23 00:34:00,44.6,36.2,29.15,East,92,0.0,0.0,72,0.00,,---,0.00,VWS V13.00,2013-03-23 05:34:00,
2013-03-23 00:40:00,44.6,36.8,29.15,ESE,108,0.0,0.0,74,0.00,,---,0.00,VWS V13.00,2013-03-23 05:40:00,
2013-03-23 00:47:00,44.6,37.2,29.15,ESE,112,0.0,0.0,75,0.00,,---,0.00,VWS V13.00,2013-03-23 05:47:00,
2013-03-23 00:55:00,44.6,37.5,29.12,ENE,75,0.0,0.0,76,0.00,,---,0.00,VWS V13.00,2013-03-23 05:55:00,
2013-03-23 01:01:00,44.6,37.5,29.12,ENE,75,0.0,0.0,76,0.00,,---,0.00,VWS V13.00,2013-03-23 06:01:00,
2013-03-23 01:07:00,44.6,37.8,29.12,ENE,75,0.0,0.0,77,0.00,,---,0.00,VWS V13.00,2013-03-23 06:07:00,
2013-03-23 01:13:00,44.8,38.0,29.12,NE,54,0.0,0.0,77,0.00,,---,0.00,VWS V13.00,2013-03-23 06:13:00,
2013-03-23 01:19:00,44.8,38.3,29.12,NE,54,0.0,0.0,78,0.00,,---,0.00,VWS V13.00,2013-03-23 06:19:00,
2013-03-23 01:25:00,44.8,38.7,29.12,ESE,109,0.0,0.0,79,0.00,,---,0.00,VWS V13.00,2013-03-23 06:25:00,
2013-03-23 01:31:00,44.8,39.0,29.12,ESE,109,0.0,0.0,80,0.04,,---,0.04,VWS V13.00,2013-03-23 06:31:00,
2013-03-23 01:37:00,44.8,39.0,29.12,ESE,109,0.0,0.0,80,0.04,,---,0.04,VWS V13.00,2013-03-23 06:37:00,
2013-03-23 01:42:00,44.8,39.3,29.12,ESE,109,0.0,0.0,81,0.04,,---,0.04,VWS V13.00,2013-03-23 06:42:00,
2013-03-23 01:49:00,44.8,39.3,29.12,East,90,0.0,0.0,81,0.04,,---,0.08,VWS V13.00,2013-03-23 06:49:00,
2013-03-23 01:55:00,44.8,39.6,29.12,NE,43,0.0,0.0,82,0.08,,---,0.08,VWS V13.00,2013-03-23 06:55:00,
2013-03-23 02:02:00,44.8,39.9,29.12,West,260,0.0,0.0,83,0.08,,---,0.08,VWS V13.00,2013-03-23 07:02:00,
2013-03-23 02:07:00,44.8,39.9,29.12,West,260,0.0,0.0,83,0.08,,---,0.08,VWS V13.00,2013-03-23 07:07:00,
2013-03-23 02:12:00,44.8,40.2,29.12,West,260,0.0,0.0,84,0.08,,---,0.08,VWS V13.00,2013-03-23 07:12:00,
2013-03-23 02:17:00,44.8,40.2,29.12,West,260,0.0,0.0,84,0.08,,---,0.08,VWS V13.00,2013-03-23 07:17:00,
2013-03-23 02:22:00,44.8,40.5,29.12,SW,229,0.0,0.0,85,0.12,,---,0.12,VWS V13.00,2013-03-23 07:22:00,
2013-03-23 02:27:00,44.8,40.5,29.12,SSE,168,0.0,0.0,85,0.12,,---,0.12,VWS V13.00,2013-03-23 07:27:00,
2013-03-23 02:35:00,44.8,40.9,29.12,SW,219,0.0,0.0,86,0.08,,---,0.12,VWS V13.00,2013-03-23 07:35:00,
2013-03-23 02:42:00,44.6,40.7,29.12,SW,218,0.0,0.0,86,0.08,,---,0.12,VWS V13.00,2013-03-23 07:42:00,
2013-03-23 02:50:00,44.6,40.7,29.12,SW,218,0.0,0.0,86,0.08,,---,0.12,VWS V13.00,2013-03-23 07:50:00,
2013-03-23 02:56:00,44.8,41.2,29.12,WSW,245,0.0,0.0,87,0.04,,---,0.12,VWS V13.00,2013-03-23 07:56:00,
2013-03-23 03:02:00,44.8,41.2,29.12,WSW,245,0.0,0.0,87,0.04,,---,0.12,VWS V13.00,2013-03-23 08:02:00,
2013-03-23 03:07:00,44.8,41.2,29.12,WSW,245,0.0,0.0,87,0.04,,---,0.12,VWS V13.00,2013-03-23 08:07:00,
2013-03-23 03:12:00,44.8,41.2,29.09,WSW,250,0.0,0.0,87,0.04,,---,0.12,VWS V13.00,2013-03-23 08:12:00,
2013-03-23 03:17:00,44.8,41.2,29.09,WSW,257,0.0,0.0,87,0.04,,---,0.12,VWS V13.00,2013-03-23 08:17:00,
2013-03-23 03:23:00,44.8,41.2,29.09,NE,34,0.0,0.0,87,0.00,,---,0.12,VWS V13.00,2013-03-23 08:23:00,
2013-03-23 03:29:00,45.0,41.6,29.09,ENE,72,0.0,0.0,88,0.00,,---,0.12,VWS V13.00,2013-03-23 08:29:00,
2013-03-23 03:35:00,44.8,41.5,29.09,East,79,0.0,0.0,88,0.00,,---,0.12,VWS V13.00,2013-03-23 08:35:00,
2013-03-23 03:41:00,45.0,41.6,29.09,ENE,74,0.0,0.0,88,0.00,,---,0.12,VWS V13.00,2013-03-23 08:41:00,
2013-03-23 03:47:00,45.0,41.9,29.09,ENE,73,0.0,0.0,89,0.00,,---,0.12,VWS V13.00,2013-03-23 08:47:00,
2013-03-23 03:52:00,45.0,41.9,29.09,ENE,73,0.0,0.0,89,0.00,,---,0.12,VWS V13.00,2013-03-23 08:52:00,
2013-03-23 03:57:00,45.0,41.9,29.06,ENE,73,0.0,0.0,89,0.00,,---,0.12,VWS V13.00,2013-03-23 08:57:00,
2013-03-23 04:02:00,45.0,41.9,29.06,ENE,73,0.0,0.0,89,0.00,,---,0.12,VWS V13.00,2013-03-23 09:02:00,
2013-03-23 04:07:00,45.1,42.1,29.06,ENE,69,0.0,0.0,89,0.00,,---,0.12,VWS V13.00,2013-03-23 09:07:00,
2013-03-23 04:12:00,45.1,42.4,29.06,NE,36,0.0,0.0,90,0.00,,---,0.12,VWS V13.00,2013-03-23 09:12:00,
2013-03-23 04:17:00,45.1,42.4,29.06,NNE,17,0.0,0.0,90,0.00,,---,0.12,VWS V13.00,2013-03-23 09:17:00,
2013-03-23 04:24:00,45.1,42.4,29.06,ESE,116,0.0,0.0,90,0.00,,---,0.12,VWS V13.00,2013-03-23 09:24:00,
2013-03-23 04:30:00,45.1,42.4,29.09,ESE,115,0.0,0.0,90,0.00,,---,0.12,VWS V13.00,2013-03-23 09:30:00,
2013-03-23 04:37:00,45.1,42.7,29.09,East,91,0.0,0.0,91,0.00,,---,0.12,VWS V13.00,2013-03-23 09:37:00,
2013-03-23 04:42:00,45.1,42.7,29.12,West,271,0.0,3.1,91,0.00,,---,0.12,VWS V13.00,2013-03-23 09:42:00,
2013-03-23 04:48:00,45.0,42.5,29.12,West,264,0.0,0.0,91,0.04,,---,0.16,VWS V13.00,2013-03-23 09:48:00,
2013-03-23 04:54:00,45.0,42.5,29.12,WNW,303,0.0,0.0,91,0.04,,---,0.16,VWS V13.00,2013-03-23 09:54:00,
2013-03-23 05:00:00,45.0,42.5,29.12,ENE,66,0.0,0.0,91,0.12,,---,0.24,VWS V13.00,2013-03-23 10:00:00,
2013-03-23 05:06:00,44.8,42.3,29.12,East,92,0.0,0.0,91,0.12,,---,0.24,VWS V13.00,2013-03-23 10:06:00,
2013-03-23 05:12:00,44.8,42.3,29.09,East,90,0.0,0.0,91,0.12,,---,0.24,VWS V13.00,2013-03-23 10:12:00,
2013-03-23 05:17:00,44.8,42.6,29.09,NNE,33,0.0,0.0,92,0.12,,---,0.24,VWS V13.00,2013-03-23 10:17:00,
2013-03-23 05:24:00,44.8,42.6,29.09,NE,37,0.0,0.0,92,0.12,,---,0.24,VWS V13.00,2013-03-23 10:24:00,
2013-03-23 05:30:00,44.8,42.6,29.09,NE,54,0.0,2.2,92,0.12,,---,0.24,VWS V13.00,2013-03-23 10:30:00,
2013-03-23 05:36:00,44.8,42.6,29.09,ENE,63,0.0,0.0,92,0.12,,---,0.24,VWS V13.00,2013-03-23 10:36:00,
2013-03-23 05:42:00,44.8,42.6,29.09,NE,56,0.0,3.1,92,0.12,,---,0.24,VWS V13.00,2013-03-23 10:42:00,
2013-03-23 05:48:00,44.8,42.6,29.09,ENE,72,0.0,0.0,92,0.08,,---,0.24,VWS V13.00,2013-03-23 10:48:00,
2013-03-23 05:54:00,44.8,42.9,29.09,ENE,62,0.0,0.0,93,0.08,,---,0.24,VWS V13.00,2013-03-23 10:54:00,
2013-03-23 06:00:00,44.8,42.9,29.09,ENE,62,0.0,0.0,93,0.00,,---,0.24,VWS V13.00,2013-03-23 11:00:00,
2013-03-23 06:06:00,45.0,43.1,29.09,SE,127,0.0,0.0,93,0.00,,---,0.24,VWS V13.00,2013-03-23 11:06:00,
2013-03-23 06:12:00,45.0,43.1,29.09,SSE,147,0.0,0.0,93,0.00,,---,0.24,VWS V13.00,2013-03-23 11:12:00,
2013-03-23 06:17:00,45.0,43.1,29.09,ENE,64,0.0,0.0,93,0.04,,---,0.28,VWS V13.00,2013-03-23 11:17:00,
2013-03-23 06:22:00,45.0,43.1,29.09,ENE,69,0.0,2.2,93,0.04,,---,0.28,VWS V13.00,2013-03-23 11:22:00,
2013-03-23 06:27:00,45.0,43.1,29.09,ESE,114,0.0,2.7,93,0.04,,---,0.28,VWS V13.00,2013-03-23 11:27:00,
2013-03-23 06:32:00,45.0,43.1,29.09,SE,144,0.0,0.0,93,0.08,,---,0.31,VWS V13.00,2013-03-23 11:32:00,
2013-03-23 06:37:00,45.0,43.1,29.09,SE,144,0.0,0.0,93,0.08,,---,0.31,VWS V13.00,2013-03-23 11:37:00,
2013-03-23 06:42:00,45.1,43.2,29.12,WSW,244,0.0,0.0,93,0.08,,---,0.31,VWS V13.00,2013-03-23 11:42:00,
2013-03-23 06:49:00,45.1,43.5,29.12,WSW,244,0.0,0.0,94,0.08,,---,0.31,VWS V13.00,2013-03-23 11:49:00,
2013-03-23 06:55:00,45.1,43.5,29.12,WSW,244,0.0,0.0,94,0.12,,---,0.35,VWS V13.00,2013-03-23 11:55:00,
2013-03-23 07:01:00,45.1,43.5,29.12,NNE,24,0.0,0.0,94,0.12,,---,0.35,VWS V13.00,2013-03-23 12:01:00,
2013-03-23 07:07:00,45.3,43.7,29.12,ENE,58,0.0,0.0,94,0.12,,---,0.35,VWS V13.00,2013-03-23 12:07:00,
2013-03-23 07:12:00,45.3,43.7,29.12,East,90,0.0,0.0,94,0.12,,---,0.35,VWS V13.00,2013-03-23 12:12:00,
2013-03-23 07:17:00,45.5,43.9,29.12,ESE,117,0.0,0.0,94,0.12,,---,0.35,VWS V13.00,2013-03-23 12:17:00,
2013-03-23 07:25:00,45.5,43.9,29.12,ESE,117,0.0,0.0,94,0.08,,---,0.35,VWS V13.00,2013-03-23 12:25:00,
2013-03-23 07:31:00,45.7,44.1,29.12,South,172,0.0,0.0,94,0.12,,---,0.39,VWS V13.00,2013-03-23 12:31:00,
2013-03-23 07:37:00,45.7,44.1,29.12,South,172,0.0,0.0,94,0.08,,---,0.39,VWS V13.00,2013-03-23 12:37:00,
2013-03-23 07:42:00,45.9,44.2,29.12,South,172,0.0,0.0,94,0.08,,---,0.39,VWS V13.00,2013-03-23 12:42:00,
2013-03-23 07:50:00,45.9,44.2,29.12,South,172,0.0,0.0,94,0.08,,---,0.39,VWS V13.00,2013-03-23 12:50:00,
2013-03-23 07:56:00,45.9,44.2,29.12,South,174,0.0,0.0,94,0.04,,---,0.39,VWS V13.00,2013-03-23 12:56:00,
2013-03-23 08:02:00,46.0,44.7,29.12,South,174,0.0,0.0,95,0.04,,---,0.39,VWS V13.00,2013-03-23 13:02:00,
2013-03-23 08:07:00,46.0,44.7,29.12,SSE,160,0.0,0.0,95,0.04,,---,0.39,VWS V13.00,2013-03-23 13:07:00,
2013-03-23 08:12:00,46.2,44.9,29.12,ESE,123,0.0,0.0,95,0.04,,---,0.39,VWS V13.00,2013-03-23 13:12:00,
2013-03-23 08:17:00,46.2,44.9,29.12,ESE,123,0.0,0.0,95,0.04,,---,0.39,VWS V13.00,2013-03-23 13:17:00,
2013-03-23 08:22:00,46.4,44.8,29.12,SE,125,0.0,0.0,94,0.04,,---,0.39,VWS V13.00,2013-03-23 13:22:00,
2013-03-23 08:27:00,46.6,45.2,29.12,East,101,0.0,0.0,95,0.04,,---,0.39,VWS V13.00,2013-03-23 13:27:00,
2013-03-23 08:35:00,46.6,45.2,29.12,East,101,0.0,0.0,95,0.00,,---,0.39,VWS V13.00,2013-03-23 13:35:00,
2013-03-23 08:42:00,46.8,45.4,29.12,NNE,18,0.0,0.0,95,0.00,,---,0.39,VWS V13.00,2013-03-23 13:42:00,
2013-03-23 08:47:00,46.8,45.4,29.12,SE,135,0.0,0.0,95,0.00,,---,0.39,VWS V13.00,2013-03-23 13:47:00,
2013-03-23 08:53:00,46.8,45.4,29.12,SE,134,0.0,0.0,95,0.04,,---,0.43,VWS V13.00,2013-03-23 13:53:00,
2013-03-23 08:59:00,46.9,45.6,29.12,NE,34,0.0,0.0,95,0.04,,---,0.43,VWS V13.00,2013-03-23 13:59:00,
2013-03-23 09:05:00,46.9,45.6,29.12,ENE,59,0.0,0.0,95,0.04,,---,0.43,VWS V13.00,2013-03-23 14:05:00,
2013-03-23 09:12:00,46.9,45.6,29.12,ENE,59,0.0,0.0,95,0.04,,---,0.43,VWS V13.00,2013-03-23 14:12:00,
2013-03-23 09:18:00,46.8,45.4,29.12,ENE,59,0.0,0.0,95,0.04,,---,0.43,VWS V13.00,2013-03-23 14:18:00,
2013-03-23 09:24:00,46.9,45.6,29.12,ENE,59,0.0,0.0,95,0.04,,---,0.43,VWS V13.00,2013-03-23 14:24:00,
2013-03-23 09:30:00,47.1,45.8,29.12,ENE,59,0.0,0.0,95,0.04,,---,0.43,VWS V13.00,2013-03-23 14:30:00,
2013-03-23 09:36:00,47.1,45.8,29.12,ENE,59,0.0,0.0,95,0.04,,---,0.43,VWS V13.00,2013-03-23 14:36:00,
2013-03-23 09:42:00,47.3,45.9,29.12,SE,127,0.0,0.0,95,0.04,,---,0.43,VWS V13.00,2013-03-23 14:42:00,
2013-03-23 09:47:00,47.5,46.1,29.12,SE,146,0.0,0.0,95,0.04,,---,0.43,VWS V13.00,2013-03-23 14:47:00,
2013-03-23 09:52:00,47.5,46.1,29.12,SE,143,0.0,0.0,95,0.04,,---,0.43,VWS V13.00,2013-03-23 14:52:00,
2013-03-23 09:57:00,47.7,46.3,29.12,NNE,19,0.0,3.6,95,0.00,,---,0.43,VWS V13.00,2013-03-23 14:57:00,
2013-03-23 10:02:00,47.8,46.5,29.12,East,87,0.0,0.0,95,0.00,,---,0.43,VWS V13.00,2013-03-23 15:02:00,
2013-03-23 10:07:00,48.0,46.9,29.12,East,87,0.0,0.0,96,0.00,,---,0.43,VWS V13.00,2013-03-23 15:07:00,
2013-03-23 10:12:00,48.0,46.9,29.12,East,87,0.0,0.0,96,0.00,,---,0.43,VWS V13.00,2013-03-23 15:12:00,
2013-03-23 10:17:00,48.0,46.9,29.12,East,87,0.0,0.0,96,0.00,,---,0.43,VWS V13.00,2013-03-23 15:17:00,
2013-03-23 10:24:00,47.8,46.5,29.12,NE,53,0.0,0.0,95,0.00,,---,0.43,VWS V13.00,2013-03-23 15:24:00,
2013-03-23 10:30:00,47.8,46.8,29.12,NE,53,0.0,0.0,96,0.00,,---,0.43,VWS V13.00,2013-03-23 15:30:00,
2013-03-23 10:37:00,48.0,46.9,29.12,NE,54,0.0,0.0,96,0.00,,---,0.43,VWS V13.00,2013-03-23 15:37:00,
2013-03-23 10:42:00,48.4,47.3,29.12,NE,54,0.0,0.0,96,0.00,,---,0.43,VWS V13.00,2013-03-23 15:42:00,
2013-03-23 10:47:00,48.4,47.3,29.12,NE,54,0.0,0.0,96,0.00,,---,0.43,VWS V13.00,2013-03-23 15:47:00,
2013-03-23 10:52:00,48.6,47.5,29.12,NE,53,0.0,0.0,96,0.00,,---,0.43,VWS V13.00,2013-03-23 15:52:00,
2013-03-23 10:57:00,48.6,47.2,29.12,NE,47,0.0,2.2,95,0.00,,---,0.43,VWS V13.00,2013-03-23 15:57:00,
2013-03-23 11:04:00,48.6,47.2,29.12,ENE,70,0.0,0.0,95,0.00,,---,0.43,VWS V13.00,2013-03-23 16:04:00,
2013-03-23 11:10:00,48.6,47.2,29.12,NE,44,0.0,0.0,95,0.00,,---,0.43,VWS V13.00,2013-03-23 16:10:00,
2013-03-23 11:16:00,48.6,47.5,29.12,ENE,64,0.0,0.0,96,0.00,,---,0.43,VWS V13.00,2013-03-23 16:16:00,
2013-03-23 11:22:00,48.7,47.7,29.12,NNE,19,0.0,0.0,96,0.00,,---,0.43,VWS V13.00,2013-03-23 16:22:00,
2013-03-23 11:27:00,48.7,47.7,29.12,East,86,0.0,3.1,96,0.00,,---,0.43,VWS V13.00,2013-03-23 16:27:00,
2013-03-23 11:34:00,48.6,47.5,29.12,ENE,65,0.0,2.2,96,0.00,,---,0.43,VWS V13.00,2013-03-23 16:34:00,
2013-03-23 11:40:00,48.9,47.8,29.12,ENE,60,0.0,0.0,96,0.00,,---,0.43,VWS V13.00,2013-03-23 16:40:00,
2013-03-23 11:46:00,49.3,48.2,29.12,NNE,19,0.0,0.0,96,0.00,,---,0.43,VWS V13.00,2013-03-23 16:46:00,
2013-03-23 11:52:00,49.8,48.7,29.12,East,96,2.7,2.7,96,0.00,,---,0.43,VWS V13.00,2013-03-23 16:52:00,
2013-03-23 11:57:00,50.2,49.1,29.09,ESE,120,0.0,2.7,96,0.00,,---,0.43,VWS V13.00,2013-03-23 16:57:00,
2013-03-23 12:02:00,50.4,49.3,29.09,NNE,16,0.0,0.0,96,0.00,,---,0.43,VWS V13.00,2013-03-23 17:02:00,
2013-03-23 12:07:00,50.7,49.6,29.09,ESE,114,0.0,0.0,96,0.00,,---,0.43,VWS V13.00,2013-03-23 17:07:00,
2013-03-23 12:14:00,51.4,50.3,29.09,NNE,21,0.0,0.0,96,0.00,,---,0.43,VWS V13.00,2013-03-23 17:14:00,
2013-03-23 12:20:00,51.8,50.7,29.09,NNE,23,0.0,0.0,96,0.00,,---,0.43,VWS V13.00,2013-03-23 17:20:00,
2013-03-23 12:26:00,51.6,50.5,29.09,East,98,0.0,4.0,96,0.00,,---,0.43,VWS V13.00,2013-03-23 17:26:00,
2013-03-23 12:32:00,51.1,50.0,29.09,NNE,23,0.0,3.1,96,0.00,,---,0.43,VWS V13.00,2013-03-23 17:32:00,
2013-03-23 12:37:00,51.3,50.2,29.09,NE,49,0.0,3.1,96,0.00,,---,0.43,VWS V13.00,2013-03-23 17:37:00,
2013-03-23 12:42:00,51.4,50.3,29.09,ENE,77,0.0,0.0,96,0.00,,---,0.43,VWS V13.00,2013-03-23 17:42:00,
2013-03-23 12:47:00,51.6,50.5,29.09,East,90,0.0,0.0,96,0.00,,---,0.43,VWS V13.00,2013-03-23 17:47:00,
2013-03-23 12:53:00,51.4,50.3,29.09,ENE,71,0.0,0.0,96,0.00,,---,0.43,VWS V13.00,2013-03-23 17:53:00,
2013-03-23 13:00:00,51.6,50.5,29.09,ENE,57,0.0,0.0,96,0.00,,---,0.43,VWS V13.00,2013-03-23 18:00:00,
2013-03-23 13:06:00,51.8,50.4,29.09,NE,52,0.0,0.0,95,0.00,,---,0.43,VWS V13.00,2013-03-23 18:06:00,
2013-03-23 13:12:00,52.0,50.6,29.09,ESE,103,0.0,4.0,95,0.00,,---,0.43,VWS V13.00,2013-03-23 18:12:00,
2013-03-23 13:17:00,52.3,51.0,29.09,SE,141,0.0,6.3,95,0.00,,---,0.43,VWS V13.00,2013-03-23 18:17:00,
2013-03-23 13:24:00,52.5,51.1,29.09,East,89,0.0,0.0,95,0.00,,---,0.43,VWS V13.00,2013-03-23 18:24:00,
2013-03-23 13:30:00,52.9,51.5,29.06,ENE,60,0.0,0.0,95,0.00,,---,0.43,VWS V13.00,2013-03-23 18:30:00,
2013-03-23 13:36:00,53.8,52.1,29.06,ENE,59,0.0,2.7,94,0.00,,---,0.43,VWS V13.00,2013-03-23 18:36:00,
2013-03-23 13:42:00,53.8,51.8,29.09,SE,129,0.0,0.0,93,0.00,,---,0.43,VWS V13.00,2013-03-23 18:42:00,
2013-03-23 13:48:00,53.6,51.6,29.09,SSW,193,0.0,0.0,93,0.00,,---,0.43,VWS V13.00,2013-03-23 18:48:00,
2013-03-23 13:55:00,53.6,51.3,29.09,NE,51,0.0,0.0,92,0.00,,---,0.43,VWS V13.00,2013-03-23 18:55:00,
2013-03-23 14:01:00,53.2,50.7,29.09,NE,56,0.0,0.0,91,0.00,,---,0.43,VWS V13.00,2013-03-23 19:01:00,
2013-03-23 14:07:00,53.1,50.2,29.09,NE,56,0.0,0.0,90,0.00,,---,0.43,VWS V13.00,2013-03-23 19:07:00,
2013-03-23 14:12:00,52.9,49.7,29.09,NE,54,0.0,0.0,89,0.00,,---,0.43,VWS V13.00,2013-03-23 19:12:00,
2013-03-23 14:17:00,52.7,49.2,29.09,ENE,71,0.0,2.2,88,0.00,,---,0.43,VWS V13.00,2013-03-23 19:17:00,
2013-03-23 14:22:00,52.7,49.2,29.09,NNE,29,0.0,0.0,88,0.00,,---,0.43,VWS V13.00,2013-03-23 19:22:00,
2013-03-23 14:27:00,52.5,48.8,29.06,NNE,33,0.0,0.0,87,0.00,,---,0.43,VWS V13.00,2013-03-23 19:27:00,
2013-03-23 14:34:00,52.5,48.8,29.06,East,89,0.0,0.0,87,0.00,,---,0.43,VWS V13.00,2013-03-23 19:34:00,
2013-03-23 14:40:00,52.5,48.5,29.03,East,80,4.0,4.0,86,0.00,,---,0.43,VWS V13.00,2013-03-23 19:40:00,
2013-03-23 14:47:00,53.1,49.0,29.03,ENE,69,0.0,4.0,86,0.00,,---,0.43,VWS V13.00,2013-03-23 19:47:00,
2013-03-23 14:52:00,53.4,49.3,29.03,East,87,0.0,2.7,86,0.00,,---,0.43,VWS V13.00,2013-03-23 19:52:00,
2013-03-23 14:57:00,53.4,49.0,29.06,NE,43,0.0,2.7,85,0.00,,---,0.43,VWS V13.00,2013-03-23 19:57:00,
2013-03-23 15:04:00,53.8,49.4,29.06,ESE,119,0.0,2.7,85,0.00,,---,0.43,VWS V13.00,2013-03-23 20:04:00,
2013-03-23 15:10:00,54.0,49.2,29.03,NE,51,0.0,0.0,84,0.00,,---,0.43,VWS V13.00,2013-03-23 20:10:00,
2013-03-23 15:16:00,54.0,48.9,29.03,ENE,74,0.0,0.0,83,0.00,,---,0.43,VWS V13.00,2013-03-23 20:16:00,
2013-03-23 15:22:00,53.8,48.8,29.03,SE,137,0.0,0.0,83,0.00,,---,0.43,VWS V13.00,2013-03-23 20:22:00,
2013-03-23 15:27:00,53.8,48.8,29.03,NE,42,0.0,0.0,83,0.00,,---,0.43,VWS V13.00,2013-03-23 20:27:00,
2013-03-23 15:34:00,53.6,48.2,29.03,SE,141,0.0,0.0,82,0.00,,---,0.43,VWS V13.00,2013-03-23 20:34:00,
2013-03-23 15:40:00,53.4,48.4,29.06,SE,135,0.0,0.0,83,0.00,,---,0.43,VWS V13.00,2013-03-23 20:40:00,
2013-03-23 15:47:00,53.2,47.9,29.06,SE,126,0.0,2.2,82,0.00,,---,0.43,VWS V13.00,2013-03-23 20:47:00,
2013-03-23 15:52:00,53.1,47.7,29.06,ESE,106,0.0,0.0,82,0.00,,---,0.43,VWS V13.00,2013-03-23 20:52:00,
2013-03-23 15:57:00,52.9,47.5,29.06,ESE,106,0.0,0.0,82,0.00,,---,0.43,VWS V13.00,2013-03-23 20:57:00,
2013-03-23 16:02:00,52.7,47.4,29.06,ESE,106,0.0,0.0,82,0.00,,---,0.43,VWS V13.00,2013-03-23 21:02:00,
2013-03-23 16:08:00,52.5,47.2,29.06,ESE,106,0.0,0.0,82,0.00,,---,0.43,VWS V13.00,2013-03-23 21:08:00,
2013-03-23 16:14:00,52.2,47.2,29.06,SSW,210,0.0,0.0,83,0.04,,---,0.47,VWS V13.00,2013-03-23 21:14:00,
2013-03-23 16:20:00,51.8,46.8,29.06,South,178,0.0,0.0,83,0.04,,---,0.47,VWS V13.00,2013-03-23 21:20:00,
2013-03-23 16:26:00,51.6,47.0,29.06,South,170,0.0,0.0,84,0.08,,---,0.51,VWS V13.00,2013-03-23 21:26:00,
2013-03-23 16:32:00,51.4,47.1,29.06,ENE,78,0.0,0.0,85,0.08,,---,0.51,VWS V13.00,2013-03-23 21:32:00,
2013-03-23 16:37:00,51.4,47.1,29.06,ENE,61,0.0,2.7,85,0.08,,---,0.51,VWS V13.00,2013-03-23 21:37:00,
2013-03-23 16:42:00,51.3,47.2,29.06,North,0,0.0,2.2,86,0.12,,---,0.55,VWS V13.00,2013-03-23 21:42:00,
2013-03-23 16:47:00,51.4,48.0,29.06,ESE,114,0.0,0.0,88,0.12,,---,0.55,VWS V13.00,2013-03-23 21:47:00,
2013-03-23 16:53:00,51.6,48.5,29.06,East,87,0.0,0.0,89,0.12,,---,0.55,VWS V13.00,2013-03-23 21:53:00,
2013-03-23 17:00:00,52.0,48.8,29.00,ESE,116,0.0,0.0,89,0.12,,---,0.55,VWS V13.00,2013-03-23 22:00:00,
2013-03-23 17:06:00,52.7,49.8,29.00,SE,144,0.0,3.1,90,0.12,,---,0.55,VWS V13.00,2013-03-23 22:06:00,
2013-03-23 17:12:00,53.8,51.2,29.00,ENE,62,3.1,3.1,91,0.12,,---,0.55,VWS V13.00,2013-03-23 22:12:00,
2013-03-23 17:17:00,54.0,51.4,29.00,ESE,105,0.0,2.7,91,0.08,,---,0.55,VWS V13.00,2013-03-23 22:17:00,
2013-03-23 17:22:00,53.8,51.2,29.00,East,82,2.7,4.0,91,0.08,,---,0.55,VWS V13.00,2013-03-23 22:22:00,
2013-03-23 17:27:00,53.6,51.0,29.00,SSE,151,0.0,2.7,91,0.08,,---,0.55,VWS V13.00,2013-03-23 22:27:00,
2013-03-23 17:32:00,53.6,51.0,29.00,East,98,0.0,2.2,91,0.04,,---,0.55,VWS V13.00,2013-03-23 22:32:00,
2013-03-23 17:37:00,53.2,50.7,29.00,ESE,119,0.0,3.1,91,0.04,,---,0.55,VWS V13.00,2013-03-23 22:37:00,
2013-03-23 17:42:00,53.1,50.5,29.00,East,101,0.0,2.2,91,0.04,,---,0.55,VWS V13.00,2013-03-23 22:42:00,
2013-03-23 17:47:00,53.1,50.8,29.00,South,182,0.0,3.6,92,0.00,,---,0.55,VWS V13.00,2013-03-23 22:47:00,
2013-03-23 17:54:00,53.1,50.8,29.00,NNW,328,0.0,0.0,92,0.00,,---,0.55,VWS V13.00,2013-03-23 22:54:00,
2013-03-23 18:01:00,53.1,50.8,28.97,SE,136,0.0,3.1,92,0.00,,---,0.55,VWS V13.00,2013-03-23 23:01:00,
2013-03-23 18:07:00,52.9,50.3,28.97,NE,44,0.0,0.0,91,0.00,,---,0.55,VWS V13.00,2013-03-23 23:07:00,
2013-03-23 18:12:00,52.5,50.0,28.97,SE,138,0.0,0.0,91,0.00,,---,0.55,VWS V13.00,2013-03-23 23:12:00,
2013-03-23 18:17:00,52.2,49.6,28.97,NNE,32,0.0,0.0,91,0.00,,---,0.55,VWS V13.00,2013-03-23 23:17:00,
2013-03-23 18:22:00,52.0,49.4,28.97,ENE,75,0.0,0.0,91,0.00,,---,0.55,VWS V13.00,2013-03-23 23:22:00,
2013-03-23 18:28:00,51.6,49.1,28.97,NE,44,0.0,0.0,91,0.00,,---,0.55,VWS V13.00,2013-03-23 23:28:00,
2013-03-23 18:34:00,51.4,48.9,28.97,ESE,107,0.0,3.1,91,0.00,,---,0.55,VWS V13.00,2013-03-23 23:34:00,
2013-03-23 18:40:00,51.3,48.7,28.97,NE,43,0.0,3.6,91,0.00,,---,0.55,VWS V13.00,2013-03-23 23:40:00,
2013-03-23 18:46:00,51.3,48.7,28.97,ENE,59,2.2,2.7,91,0.00,,---,0.55,VWS V13.00,2013-03-23 23:46:00,
2013-03-23 18:52:00,51.3,48.7,28.97,SE,142,0.0,2.2,91,0.00,,---,0.55,VWS V13.00,2013-03-23 23:52:00,
2013-03-23 18:57:00,51.3,48.7,28.97,ENE,72,0.0,3.6,91,0.00,,---,0.55,VWS V13.00,2013-03-23 23:57:00,
2013-03-23 19:04:00,51.1,48.5,28.97,SE,140,0.0,0.0,91,0.00,,---,0.55,VWS V13.00,2013-03-24 00:04:00,
2013-03-23 19:10:00,51.1,48.8,28.97,SE,131,0.0,0.0,92,0.00,,---,0.55,VWS V13.00,2013-03-24 00:10:00,
2013-03-23 19:16:00,51.1,48.8,28.97,SSE,164,0.0,0.0,92,0.00,,---,0.55,VWS V13.00,2013-03-24 00:16:00,
2013-03-23 19:22:00,51.1,48.8,28.97,SW,227,0.0,0.0,92,0.00,,---,0.55,VWS V13.00,2013-03-24 00:22:00,
2013-03-23 19:27:00,51.1,48.8,28.97,ESE,115,0.0,0.0,92,0.00,,---,0.55,VWS V13.00,2013-03-24 00:27:00,
2013-03-23 19:32:00,50.9,48.7,28.97,SE,136,2.7,2.7,92,0.00,,---,0.55,VWS V13.00,2013-03-24 00:32:00,
2013-03-23 19:38:00,50.9,48.7,28.97,SE,126,0.0,3.1,92,0.00,,---,0.55,VWS V13.00,2013-03-24 00:38:00,
2013-03-23 19:44:00,50.9,48.7,28.94,WSW,249,0.0,0.0,92,0.00,,---,0.55,VWS V13.00,2013-03-24 00:44:00,
2013-03-23 19:50:00,50.9,48.7,28.94,ESE,109,0.0,0.0,92,0.00,,---,0.55,VWS V13.00,2013-03-24 00:50:00,
2013-03-23 19:57:00,50.9,48.7,28.91,ENE,67,0.0,3.6,92,0.00,,---,0.55,VWS V13.00,2013-03-24 00:57:00,
2013-03-23 20:02:00,50.9,49.0,28.91,WNW,284,2.7,5.8,93,0.00,,---,0.55,VWS V13.00,2013-03-24 01:02:00,
2013-03-23 20:07:00,50.9,49.0,28.91,ENE,67,4.9,5.4,93,0.00,,---,0.55,VWS V13.00,2013-03-24 01:07:00,
2013-03-23 20:14:00,50.9,49.0,28.91,East,95,2.7,4.9,93,0.00,,---,0.55,VWS V13.00,2013-03-24 01:14:00,
2013-03-23 20:20:00,51.1,49.1,28.91,North,0,3.6,4.9,93,0.00,,---,0.55,VWS V13.00,2013-03-24 01:20:00,
2013-03-23 20:26:00,51.1,49.1,28.91,East,82,3.1,4.9,93,0.00,,---,0.55,VWS V13.00,2013-03-24 01:26:00,
2013-03-23 20:32:00,51.1,49.1,28.91,SE,145,0.0,0.0,93,0.00,,---,0.55,VWS V13.00,2013-03-24 01:32:00,
2013-03-23 20:37:00,51.1,49.1,28.91,SE,135,0.0,2.7,93,0.00,,---,0.55,VWS V13.00,2013-03-24 01:37:00,
2013-03-23 20:42:00,51.1,49.1,28.91,ESE,118,0.0,4.0,93,0.00,,---,0.55,VWS V13.00,2013-03-24 01:42:00,
2013-03-23 20:47:00,51.1,49.1,28.91,East,88,2.7,4.0,93,0.00,,---,0.55,VWS V13.00,2013-03-24 01:47:00,
2013-03-23 20:53:00,51.1,48.8,28.91,SE,139,0.0,0.0,92,0.00,,---,0.55,VWS V13.00,2013-03-24 01:53:00,
2013-03-23 20:59:00,51.1,48.8,28.94,SE,140,4.0,5.4,92,0.00,,---,0.55,VWS V13.00,2013-03-24 01:59:00,
2013-03-23 21:05:00,51.1,48.8,28.94,WSW,246,0.0,0.0,92,0.00,,---,0.55,VWS V13.00,2013-03-24 02:05:00,
2013-03-23 21:12:00,51.1,48.8,28.94,South,169,0.0,0.0,92,0.00,,---,0.55,VWS V13.00,2013-03-24 02:12:00,
2013-03-23 21:17:00,51.1,48.8,28.94,NE,44,0.0,0.0,92,0.00,,---,0.55,VWS V13.00,2013-03-24 02:17:00,
2013-03-23 21:24:00,51.1,48.8,28.94,NNW,328,0.0,0.0,92,0.00,,---,0.55,VWS V13.00,2013-03-24 02:24:00,
2013-03-23 21:30:00,50.9,48.7,28.94,WSW,248,0.0,0.0,92,0.04,,---,0.59,VWS V13.00,2013-03-24 02:30:00,
2013-03-23 21:36:00,50.9,48.7,28.94,West,278,0.0,4.9,92,0.04,,---,0.59,VWS V13.00,2013-03-24 02:36:00,
2013-03-23 21:42:00,50.7,48.2,28.97,North,353,0.0,0.0,91,0.04,,---,0.63,VWS V13.00,2013-03-24 02:42:00,
2013-03-23 21:47:00,50.7,48.2,28.97,WNW,301,0.0,0.0,91,0.08,,---,0.63,VWS V13.00,2013-03-24 02:47:00,
2013-03-23 21:52:00,50.7,48.5,28.97,WNW,294,0.0,0.0,92,0.08,,---,0.63,VWS V13.00,2013-03-24 02:52:00,
2013-03-23 22:00:00,50.5,48.3,29.00,SSW,197,0.0,0.0,92,0.12,,---,0.67,VWS V13.00,2013-03-24 03:00:00,
2013-03-23 22:06:00,50.5,48.3,29.00,South,191,0.0,0.0,92,0.12,,---,0.67,VWS V13.00,2013-03-24 03:06:00,
2013-03-23 22:12:00,50.4,48.1,28.97,South,173,0.0,0.0,92,0.16,,---,0.71,VWS V13.00,2013-03-24 03:12:00,
2013-03-23 22:18:00,50.4,48.1,28.97,East,97,0.0,0.0,92,0.20,,---,0.75,VWS V13.00,2013-03-24 03:18:00,
2013-03-23 22:25:00,50.2,48.0,28.97,ESE,117,3.6,4.9,92,0.24,,---,0.79,VWS V13.00,2013-03-24 03:25:00,
2013-03-23 22:31:00,50.2,48.0,28.97,ESE,110,2.7,4.5,92,0.24,,---,0.79,VWS V13.00,2013-03-24 03:31:00,
2013-03-23 22:37:00,50.2,48.0,28.97,SSE,167,0.0,4.0,92,0.24,,---,0.83,VWS V13.00,2013-03-24 03:37:00,
2013-03-23 22:42:00,50.2,48.2,28.94,SW,229,2.7,5.8,93,0.28,,---,0.87,VWS V13.00,2013-03-24 03:42:00,
2013-03-23 22:49:00,50.4,48.4,28.94,SE,135,3.6,4.0,93,0.28,,---,0.91,VWS V13.00,2013-03-24 03:49:00,
2013-03-23 22:55:00,50.5,48.9,28.94,South,177,4.9,7.2,94,0.31,,---,0.94,VWS V13.00,2013-03-24 03:55:00,
2013-03-23 23:02:00,50.7,49.3,28.94,NW,325,5.8,7.6,95,0.28,,---,0.94,VWS V13.00,2013-03-24 04:02:00,
2013-03-23 23:04:00,50.7,49.3,28.94,SSE,159,7.6,7.6,95,0.35,,---,1.02,VWS V13.00,2013-03-24 04:04:00,
2013-03-23 23:10:00,50.9,49.5,28.94,SE,137,4.9,6.3,95,0.35,,---,1.02,VWS V13.00,2013-03-24 04:10:00,
2013-03-23 23:17:00,51.1,50.0,28.94,ESE,111,3.1,6.3,96,0.35,,---,1.06,VWS V13.00,2013-03-24 04:17:00,
2013-03-23 23:22:00,51.3,50.2,28.94,South,172,7.6,8.7,96,0.35,,---,1.10,VWS V13.00,2013-03-24 04:22:00,
2013-03-23 23:27:00,51.4,50.3,28.91,SSW,202,3.1,7.6,96,0.35,,---,1.10,VWS V13.00,2013-03-24 04:27:00,
2013-03-23 23:32:00,51.6,50.8,28.91,SE,144,0.0,5.8,97,0.31,,---,1.10,VWS V13.00,2013-03-24 04:32:00,
2013-03-23 23:38:00,51.6,50.8,28.91,SSE,164,2.7,3.1,97,0.31,,---,1.14,VWS V13.00,2013-03-24 04:38:00,
2013-03-23 23:44:00,51.6,50.8,28.91,SE,136,2.7,2.7,97,0.31,,---,0.04,VWS V13.00,2013-03-24 04:44:00,
2013-03-23 23:50:00,51.6,50.8,28.91,SSE,150,3.1,4.9,97,0.28,,---,0.04,VWS V13.00,2013-03-24 04:50:00,
2013-03-23 23:56:00,51.6,50.8,28.88,ENE,60,4.0,8.1,97,0.31,,---,0.08,VWS V13.00,2013-03-24 04:56:00,